This is the latest recevied weather packets stored in our database for station/object EA1CUE-WX. If no packets are shown the sender has not sent any weather packets the latest 10 day(s).
| Time | Temp. | Humidity | Pressure | Rain* | Wind** | Luminosity | Snow |
|---|---|---|---|---|---|---|---|
| 1777400924 | 14.44° C | 24% | 1009.8 hPa | 0 mm | - | - | - |
| 1777400624 | 15° C | 28% | 1009.8 hPa | 0 mm | - | - | - |
| 1777400324 | 15° C | 39% | 1009.7 hPa | 0 mm | - | - | - |
| 1777400024 | 15° C | 46% | 1009.7 hPa | 0 mm | - | - | - |
| 1777399724 | 15° C | 47% | 1009.7 hPa | 0 mm | - | - | - |
| 1777399424 | 15° C | 47% | 1009.6 hPa | 0 mm | - | - | - |
| 1777399124 | 15° C | 44% | 1009.7 hPa | 0 mm | - | - | - |
| 1777398824 | 15.56° C | 40% | 1009.7 hPa | 0 mm | - | - | - |
| 1777398524 | 15.56° C | 41% | 1009.8 hPa | 0 mm | - | - | - |
| 1777398224 | 15.56° C | 46% | 1009.7 hPa | 0 mm | - | - | - |
| 1777397924 | 15.56° C | 45% | 1009.8 hPa | 0 mm | - | - | - |
| 1777397624 | 15° C | 43% | 1009.8 hPa | 0 mm | - | - | - |
| 1777397324 | 15° C | 39% | 1009.8 hPa | 0 mm | - | - | - |
| 1777397024 | 14.44° C | 34% | 1010 hPa | 0 mm | - | - | - |
| 1777396724 | 14.44° C | 23% | 1010 hPa | 0 mm | - | - | - |
| 1777396424 | 13.89° C | 16% | 1010.2 hPa | 0 mm | - | - | - |
| 1777396124 | 13.89° C | 2% | 1010.2 hPa | 0 mm | - | - | - |
| 1777395824 | 13.89° C | 1% | 1010.2 hPa | 0 mm | - | - | - |
| 1777395524 | 13.89° C | 1% | 1010.4 hPa | 0 mm | - | - | - |
| 1777395224 | 13.89° C | 1% | 1010.5 hPa | 0.25 mm | - | - | - |
| 1777394924 | 13.89° C | 1% | 1010.6 hPa | 0.51 mm | - | - | - |
| 1777394624 | 13.89° C | 1% | 1010.6 hPa | 0.76 mm | - | - | - |
| 1777394324 | 13.89° C | 1% | 1010.7 hPa | 0.76 mm | - | - | - |
| 1777394024 | 13.33° C | 1% | 1010.7 hPa | 0.76 mm | - | - | - |
| 1777393724 | 13.33° C | 1% | 1010.8 hPa | 0.76 mm | - | - | - |
* Rain latest hour (hover to see other rain measurements)
** Current wind speed in m/s (hover to see current wind gust speed)